Импхал

Индия     24°46′59″N   93°55′22″E
темп.,
°C
ветер,
м/с
пор.,
м/с
влажн.,
%
обл.,
%
осадки,
мм/ч
давл.,
гПа
погр.,
м
6 мая, чт
чт623:30+16св117195 0.0 101217
02:30+16всв117949 0.0 101212
05:30+17св127255 0.0 101478
08:30+28юз12376 0.0 1014987
11:30+31зюз3531100 0.1 10112525
14:30+31з4630100 0.1 10082963
17:30+23ю4662100 0.1 1010429
20:30+18всв118380 0.0 101311
7 мая, пт
пт723:30+18всв1173100 0.0 101311
02:30+16св118632 0.4 101312
05:30+17всв118410 0.6 101557
08:30+26юз014895 0.0 1014454
11:30+33юз252639 0.0 10102917
14:30+32з552997 0.0 10072645
17:30+24юв22560 0.1 100949
20:30+20ссв117294 0.0 101313
8 мая, сб
сб823:30+17св1180100 0.0 101315
02:30+18св1175100 0.2 101253
05:30+18с1179100 0.5 101466
08:30+25зюз1156100 0.5 1014660
11:30+33юз232972 0.6 10092884
14:30+23всв237255 2.0 1009252
17:30+22ссз117175 2.4 100831
20:30+18всв118774 0.1 101111
9 мая, вс
вс923:30+17ссв11926 0.3 101129
02:30+16с1195100 1.1 101111
05:30+18ссв0187100 1.1 101267
08:30+26зюз135495 0.0 1012692
11:30+32з453146 0.0 10082873
14:30+32з663220 0.0 10052984
17:30+27з47462 0.0 1005405
20:30+20ююв11780 0.0 100820
10 мая, пн
пн1023:30+17вюв1194100 1.1 100912
02:30+17всв1195100 1.5 100828
05:30+18юв0091100 1.7 100948
08:30+23св1271100 1.8 1010475
11:30+28з344586 2.9 10071664
14:30+29сз45415 0.1 10041660
17:30+25зсз125565 0.1 100337
20:30+19юв11841 0.6 100811